Location: Old Broadwell Mill Observatory
(33.8015°N, 85.8137°W)
Time: 17:14:52
(UTC-05:00)

Amateur Radio Satellites - All Passes

Search period start: 27 April 2015 16:44
Search period end: 28 April 2015 16:44
Location: Old Broadwell Mill Observatory, 33.8015°N, 85.8137°W

Satellite Date Start Highest point End Downlink Frequencies (MHz)
Time Altitude Azimuth
RS-15 27 Apr 16:45:00 16:53:11 22° 326° (NW) 17:01:08 29.354- 29.394
KKS-1 27 Apr 16:48:11 16:50:45 15° 292° (WNW) 16:53:07 437.445
DANDE 27 Apr 16:55:39 16:58:39 37° 91° (E) 17:02:34 436.750
ISS 27 Apr 17:05:09 17:06:49 13° 29° (NNE) 17:08:33 145.825
Cosmos 2499 27 Apr 17:15:59 17:22:54 28° 86° (E) 17:30:00 435.465 / 435.565
JAS-2 27 Apr 17:21:32 17:27:59 26° 268° (W) 17:34:06 435.910
MOZHAYETS 4 27 Apr 17:28:23 17:33:00 84° 285° (WNW) 17:37:33
PHONESAT 2.4 27 Apr 17:30:44 17:34:12 45° 343° (NNW) 17:37:39 2401.200-2431.200
CUTE-I 27 Apr 17:34:13 17:38:48 31° 70° (ENE) 17:43:28 437.470
Cubesat XI-IV 27 Apr 17:44:09 17:49:03 39° 72° (ENE) 17:54:00 437.490
CUSAT 1 27 Apr 17:44:51 17:48:04 29° 289° (WNW) 17:52:06 437.405
AO-7 27 Apr 17:51:50 17:56:55 16° 269° (W) 18:01:26 29.400- 29.500
GONETS M04 27 Apr 17:58:22 18:05:49 29° 289° (WNW) 18:13:03
PCSat 27 Apr 18:16:22 18:21:22 38° 250° (WSW) 18:26:18 145.827
AUBIESAT-1 27 Apr 18:19:07 18:20:58 13° 95° (E) 18:22:58 437.475
VERMONT LUNAR 27 Apr 18:19:51 18:22:44 25° 2° (N) 18:25:36 437.305
STRAND 1 27 Apr 18:33:37 18:36:18 15° 91° (E) 18:39:15 437.568
ISS 27 Apr 18:40:16 18:43:30 66° 226° (SW) 18:46:42 145.825
PRISM 27 Apr 18:48:04 18:51:25 25° 96° (E) 18:54:51 437.425
Cosmos 2499 27 Apr 19:06:56 19:15:39 57° 281° (W) 19:24:07 435.465 / 435.565
PHONESAT 2.4 27 Apr 19:09:49 19:12:55 27° 360° (N) 19:16:01 2401.200-2431.200
RS-15 27 Apr 19:10:33 19:11:59 10° 1° (N) 19:13:27 29.354- 29.394
CUBESAT XI-V 27 Apr 19:10:55 19:15:32 89° 283° (WNW) 19:20:10 437.345
M-CUBED/EXP-1 PRIME 27 Apr 19:11:47 19:15:51 85° 106° (ESE) 19:19:32 437.505
HO-68 27 Apr 19:13:06 19:17:38 19° 62° (ENE) 19:22:30 435.675
CUTE-I 27 Apr 19:14:22 19:18:53 27° 265° (W) 19:23:18 437.470
SO-50 27 Apr 19:19:17 19:22:55 20° 49° (NE) 19:26:38 436.795
Cubesat XI-IV 27 Apr 19:25:16 19:29:19 21° 266° (W) 19:33:12 437.490
CANX-2 27 Apr 19:42:47 19:45:16 16° 70° (ENE) 19:47:56 2200.000
GOMX 1 27 Apr 19:44:24 19:47:26 20° 70° (ENE) 19:50:41 467.674
CUTE 1.7 + AOD 2 27 Apr 19:51:13 19:54:01 18° 70° (ENE) 19:56:59 437.475
AUBIESAT-1 27 Apr 19:52:25 19:56:01 32° 293° (WNW) 19:59:19 437.475
VERMONT LUNAR 27 Apr 19:57:22 20:00:39 45° 18° (NNE) 20:03:54 437.305
BRITE-PL 27 Apr 20:07:19 20:11:24 63° 76° (ENE) 20:15:39 437.365/2234.400
DOVE 4 27 Apr 20:09:33 20:13:01 25° 71° (ENE) 20:16:43 437.250
STRAND 1 27 Apr 20:10:55 20:15:52 51° 286° (WNW) 20:20:47 437.568
PRISM 27 Apr 20:23:42 20:26:47 20° 289° (WNW) 20:29:44 437.425
COMPASS 1 27 Apr 20:35:28 20:39:23 38° 74° (ENE) 20:43:21 437.405
CINEMA 3 27 Apr 20:37:01 20:40:35 26° 71° (ENE) 20:44:22 145.822/145.860
DELFI C3 27 Apr 20:39:50 20:40:47 11° 69° (ENE) 20:41:58 145.870
O/OREOS (USA 219) 27 Apr 20:41:17 20:43:32 14° 101° (E) 20:46:03 437.305
UWE-3 27 Apr 20:44:16 20:46:03 13° 67° (ENE) 20:48:07 435.000/436.395/437.385
PHONESAT 2.4 27 Apr 20:48:12 20:51:39 42° 16° (NNE) 20:55:04 2401.200-2431.200
FUNcube-1 27 Apr 20:48:48 20:49:32 11° 67° (ENE) 20:50:35 145.935
HO-68 27 Apr 20:57:33 21:04:44 73° 257° (WSW) 21:11:57 435.675
SO-50 27 Apr 20:59:00 21:03:43 45° 246° (WSW) 21:08:19 436.795
SEEDS 27 Apr 21:04:14 21:08:29 73° 259° (W) 21:12:46 437.485
Oscar 11 27 Apr 21:05:47 21:09:41 33° 73° (ENE) 21:13:38 145.826/435.025
ZACube-1 27 Apr 21:12:29 21:15:42 21° 70° (ENE) 21:19:07 437.345
AAUSAT CUBESAT 2 27 Apr 21:15:48 21:20:00 77° 258° (WSW) 21:24:15 437.432
CANX-2 27 Apr 21:16:56 21:20:56 36° 263° (W) 21:24:55 2200.000
GOMX 1 27 Apr 21:21:55 21:25:28 26° 265° (W) 21:29:05 467.674
RS-15 27 Apr 21:22:10 21:30:42 24° 36° (NE) 21:39:56 29.354- 29.394
CUTE 1.7 + AOD 2 27 Apr 21:25:52 21:29:44 32° 264° (W) 21:33:35 437.475
VERMONT LUNAR 27 Apr 21:34:58 21:38:03 33° 213° (SSW) 21:41:06 437.305
Cosmos 2491 27 Apr 21:38:33 21:45:46 32° 87° (E) 21:53:16 435.465 / 435.565
DX 1 27 Apr 21:43:33 21:47:16 29° 72° (ENE) 21:51:03 434.975-435.025
AISAT 27 Apr 21:44:25 21:46:28 14° 68° (ENE) 21:48:44 437.250
DOVE 4 27 Apr 21:47:32 21:50:49 21° 267° (W) 21:54:06 437.250
YUBILEINY 27 Apr 21:52:08 22:00:51 68° 81° (E) 22:09:29 435.215
CUBEBUG 2 27 Apr 21:56:37 22:00:57 72° 259° (W) 22:05:27 437.445
ANTELSAT 27 Apr 22:05:50 22:07:07 11° 89° (E) 22:08:42 437.575/2403.000
DELFI C3 27 Apr 22:11:35 22:15:33 48° 261° (W) 22:19:30 145.870
COMPASS 1 27 Apr 22:12:57 22:15:17 14° 269° (W) 22:17:23 437.405
CINEMA 3 27 Apr 22:14:21 22:17:47 22° 267° (W) 22:21:14 145.822/145.860
UWE-3 27 Apr 22:17:58 22:22:10 49° 261° (W) 22:26:31 435.000/436.395/437.385
O/OREOS (USA 219) 27 Apr 22:18:15 22:22:38 43° 293° (WNW) 22:27:00 437.305
FUNcube-1 27 Apr 22:21:07 22:25:23 59° 260° (W) 22:29:47 145.935
UKube-1 27 Apr 22:22:37 22:26:55 83° 76° (ENE) 22:31:15 .
HUMSAT D 27 Apr 22:23:32 22:27:42 67° 77° (ENE) 22:31:58 437.325/437.525
PHONESAT 2.4 27 Apr 22:26:29 22:29:54 42° 211° (SSW) 22:33:17 2401.200-2431.200
ESTCUBE 1 27 Apr 22:29:58 22:33:29 23° 71° (ENE) 22:37:06 437.505/2401.250
Oscar 11 27 Apr 22:43:05 22:45:59 17° 267° (W) 22:48:43 145.826/435.025
50 SAT 27 Apr 22:47:31 22:51:30 80° 79° (E) 22:55:33 437.505
ZACube-1 27 Apr 22:48:11 22:51:56 27° 265° (W) 22:55:42 437.345
TIGRISAT 27 Apr 22:52:19 22:56:42 39° 97° (E) 23:01:02 435.000
UNISAT 6 27 Apr 22:57:37 23:02:09 47° 99° (E) 23:06:35 437.425
CUBEBUG 1 27 Apr 22:58:08 23:02:11 41° 74° (ENE) 23:06:17 437.445
DUCHIFAT 1 27 Apr 22:59:17 23:02:24 20° 94° (E) 23:05:38 145.980
VELOX 1 27 Apr 22:59:24 23:03:48 81° 258° (WSW) 23:08:13 145.980
Cosmos 2504 27 Apr 23:00:24 23:03:31 13° 63° (ENE) 23:07:10 435.465 / 435.565
POLYITAN 1 27 Apr 23:01:05 23:04:26 22° 95° (E) 23:07:52 437.675
QB50P1 27 Apr 23:17:44 23:21:39 34° 97° (E) 23:25:36 145.935-145.965
AISAT 27 Apr 23:18:30 23:22:43 45° 261° (W) 23:26:57 437.250
DX 1 27 Apr 23:20:24 23:23:34 19° 266° (W) 23:26:36 434.975-435.025
AIST 1 27 Apr 23:22:06 23:23:47 12° 88° (E) 23:25:42
TISAT 1 27 Apr 23:30:43 23:33:33 18° 70° (ENE) 23:36:30 437.305
RS-15 27 Apr 23:33:33 23:45:17 82° 61° (ENE) 23:57:29 29.354- 29.394
Cosmos 2491 27 Apr 23:34:01 23:42:22 47° 283° (WNW) 23:50:42 435.465 / 435.565
ANTELSAT 27 Apr 23:39:44 23:44:20 56° 285° (WNW) 23:48:51 437.575/2403.000
JUGNU 27 Apr 23:42:52 23:46:08 15° 168° (SSE) 23:49:29 437.505
QB50P2 27 Apr 23:44:25 23:48:44 78° 102° (ESE) 23:53:02 145.880/145.840
YUBILEINY 27 Apr 23:50:47 23:56:58 21° 276° (W) 00:02:40 435.215
NANOSAT C BR1 28 Apr 00:00:52 00:05:08 68° 284° (WNW) 00:09:23 145.865
POPSAT HIP 1 28 Apr 00:05:13 00:09:28 59° 284° (WNW) 00:13:41 437.405
ESTCUBE 1 28 Apr 00:06:27 00:10:17 26° 265° (W) 00:14:00 437.505/2401.250
SPROUT 28 Apr 00:09:02 00:13:16 71° 76° (ENE) 00:17:32 437.525
BUGSAT 1 28 Apr 00:16:49 00:20:57 63° 284° (WNW) 00:25:07 437.445
TIGRISAT 28 Apr 00:30:01 00:33:09 17° 291° (WNW) 00:36:05 435.000
DUCHIFAT 1 28 Apr 00:34:34 00:38:14 27° 288° (WNW) 00:41:49 145.980
UNISAT 6 28 Apr 00:35:51 00:38:33 15° 292° (WNW) 00:41:00 437.425
CUBEBUG 1 28 Apr 00:36:39 00:38:49 13° 269° (W) 00:40:44 437.445
POLYITAN 1 28 Apr 00:36:43 00:40:19 25° 288° (WNW) 00:43:49 437.675
ITUPSAT 1 28 Apr 00:44:55 00:48:22 21° 69° (ENE) 00:51:57 437.325
Cosmos 2504 28 Apr 00:50:28 00:58:23 89° 264° (W) 01:05:44 435.465 / 435.565
QB50P1 28 Apr 00:54:30 00:57:17 16° 290° (WNW) 00:59:54 145.935-145.965
AIST 1 28 Apr 00:57:04 01:01:07 39° 280° (W) 01:05:09
TISAT 1 28 Apr 01:05:30 01:09:09 29° 263° (W) 01:12:47 437.305
BEESAT 28 Apr 01:12:58 01:17:27 42° 73° (ENE) 01:21:58 436.000
SWISSCUBE 28 Apr 01:15:48 01:20:24 49° 74° (ENE) 01:25:01 437.505
JUGNU 28 Apr 01:30:14 01:34:32 21° 178° (S) 01:38:50 437.505
BEESAT 3 28 Apr 01:40:35 01:44:33 57° 116° (ESE) 01:48:36 437.485
SRMSAT 28 Apr 01:45:10 01:48:46 17° 170° (S) 01:52:25 437.500
BEESAT 2 28 Apr 01:45:16 01:49:14 52° 115° (ESE) 01:53:16 435.950
RS-15 28 Apr 01:48:07 01:56:50 23° 256° (WSW) 02:05:00 29.354- 29.394
Gurwin Techsat 1B 28 Apr 01:53:26 01:54:48 11° 89° (E) 01:56:36 435.225
Oscar 19 28 Apr 02:04:57 02:10:08 69° 101° (E) 02:15:19 437.125/150
KKS-1 28 Apr 02:05:05 02:08:38 25° 71° (ENE) 02:12:17 437.445
GONETS M04 28 Apr 02:16:34 02:22:36 21° 67° (ENE) 02:29:04
ITUPSAT 1 28 Apr 02:21:42 02:26:04 34° 263° (W) 02:30:24 437.325
CUSAT 1 28 Apr 02:41:59 02:47:42 22° 68° (ENE) 02:53:58 437.405
ITAMSAT 1 28 Apr 02:45:22 02:50:21 48° 99° (E) 02:55:22 435.822/435.867
Cosmos 2504 28 Apr 02:48:01 02:50:40 11° 280° (W) 02:52:36 435.465 / 435.565
BEESAT 28 Apr 02:52:28 02:55:31 16° 268° (W) 02:58:21 436.000
STARS 28 Apr 02:52:39 02:56:55 54° 75° (ENE) 03:01:14 437.465
SWISSCUBE 28 Apr 02:56:05 02:58:35 14° 269° (W) 03:00:48 437.505
AIST 2 28 Apr 03:01:20 03:05:34 71° 299° (WNW) 03:09:51 435.215
JUGNU 28 Apr 03:18:57 03:22:55 18° 188° (S) 03:26:50 437.505
BEESAT 3 28 Apr 03:21:13 03:22:59 12° 313° (NW) 03:24:35 437.485
BEESAT 2 28 Apr 03:25:37 03:27:43 13° 312° (NW) 03:29:38 435.950
Gurwin Techsat 1B 28 Apr 03:30:05 03:35:23 70° 285° (WNW) 03:40:39 435.225
SRMSAT 28 Apr 03:33:01 03:37:18 21° 180° (S) 03:41:35 437.500
DANDE 28 Apr 03:36:56 03:44:24 44° 76° (ENE) 03:52:34 436.750
KKS-1 28 Apr 03:41:35 03:45:13 24° 265° (W) 03:48:45 437.445
Oscar 19 28 Apr 03:46:43 03:48:59 12° 295° (WNW) 03:50:57 437.125/150
AO-7 28 Apr 04:01:22 04:08:44 36° 98° (E) 04:16:18 29.400- 29.500
GONETS M04 28 Apr 04:11:36 04:20:25 72° 266° (W) 04:29:07
HORYU 2 28 Apr 04:21:04 04:25:35 81° 102° (ESE) 04:30:02 437.375
CUSAT 1 28 Apr 04:23:06 04:31:07 75° 264° (W) 04:39:21 437.405
ITAMSAT 1 28 Apr 04:26:05 04:29:32 18° 293° (WNW) 04:32:45 435.822/435.867
MOZHAYETS 4 28 Apr 04:26:12 04:30:45 57° 75° (ENE) 04:35:19
STARS 28 Apr 04:32:57 04:33:47 10° 270° (W) 04:34:18 437.465
JAS-2 28 Apr 04:35:25 04:41:26 64° 100° (E) 04:46:49 435.910
AUBIESAT-1 28 Apr 05:02:44 05:05:19 15° 63° (ENE) 05:08:07 437.475
Cosmos 2499 28 Apr 05:04:08 05:11:12 41° 76° (ENE) 05:17:56 435.465 / 435.565
JUGNU 28 Apr 05:10:37 05:11:16 10° 196° (SSW) 05:11:46 437.505
DANDE 28 Apr 05:20:20 05:27:37 38° 268° (W) 05:35:12 436.750
SRMSAT 28 Apr 05:22:08 05:25:50 17° 190° (S) 05:29:28 437.500
PRISM 28 Apr 05:36:25 05:37:54 12° 68° (ENE) 05:39:37 437.425
STRAND 1 28 Apr 05:46:12 05:49:00 15° 67° (ENE) 05:52:01 437.568
AO-7 28 Apr 05:53:51 06:01:39 45° 294° (WNW) 06:09:22 29.400- 29.500
M-CUBED/EXP-1 PRIME 28 Apr 05:55:08 05:59:51 62° 71° (ENE) 06:04:39 437.505
CUTE-I 28 Apr 05:56:05 05:59:18 17° 92° (E) 06:02:45 437.470
Cubesat XI-IV 28 Apr 06:05:58 06:09:55 22° 94° (E) 06:14:01 437.490
MOZHAYETS 4 28 Apr 06:06:59 06:08:24 11° 270° (W) 06:09:29
CUSAT 1 28 Apr 06:09:39 06:13:03 12° 276° (W) 06:15:46 437.405
CUBESAT XI-V 28 Apr 06:10:19 06:14:50 55° 75° (ENE) 06:19:22 437.345
JAS-2 28 Apr 06:22:28 06:25:50 15° 298° (WNW) 06:28:46 435.910
AUBIESAT-1 28 Apr 06:35:00 06:39:40 55° 255° (WSW) 06:44:24 437.475
O/OREOS (USA 219) 28 Apr 06:54:13 06:56:44 15° 58° (ENE) 06:59:25 437.305
Cosmos 2499 28 Apr 06:57:47 07:04:06 29° 273° (W) 07:09:57 435.465 / 435.565
PRISM 28 Apr 07:09:01 07:13:02 45° 261° (W) 07:17:01 437.425
PCSat 28 Apr 07:10:34 07:15:43 48° 112° (ESE) 07:20:56 145.827
STRAND 1 28 Apr 07:22:49 07:27:49 53° 260° (W) 07:32:48 437.568
M-CUBED/EXP-1 PRIME 28 Apr 07:33:01 07:35:06 12° 266° (W) 07:36:52 437.505
CUTE-I 28 Apr 07:34:34 07:39:42 49° 287° (WNW) 07:44:48 437.470
Cubesat XI-IV 28 Apr 07:45:14 07:50:10 38° 288° (WNW) 07:55:02 437.490
CUBESAT XI-V 28 Apr 07:51:10 07:52:41 11° 270° (W) 07:53:53 437.345
GOMX 1 28 Apr 07:51:13 07:52:19 11° 89° (E) 07:53:51 467.674
Cosmos 2491 28 Apr 07:56:41 07:58:41 11° 60° (ENE) 08:01:32 435.465 / 435.565
DOVE 4 28 Apr 08:13:29 08:15:26 12° 89° (E) 08:17:45 437.250
BRITE-PL 28 Apr 08:14:56 08:19:39 33° 96° (E) 08:24:40 437.365/2234.400
HO-68 28 Apr 08:30:27 08:36:14 27° 95° (E) 08:42:11 435.675
O/OREOS (USA 219) 28 Apr 08:32:11 08:36:26 42° 255° (WSW) 08:40:37 437.305
SEEDS 28 Apr 08:53:13 08:56:37 24° 95° (E) 09:00:07 437.485
PCSat 28 Apr 08:55:21 08:59:26 21° 308° (NW) 09:03:24 145.827
YUBILEINY 28 Apr 08:56:56 09:00:28 14° 81° (E) 09:04:46 435.215
AAUSAT CUBESAT 2 28 Apr 09:03:34 09:06:46 22° 94° (E) 09:10:01 437.432
CANX-2 28 Apr 09:05:57 09:10:06 49° 99° (E) 09:14:13 2200.000
CUTE 1.7 + AOD 2 28 Apr 09:14:36 09:18:48 56° 100° (E) 09:22:57 437.475
GOMX 1 28 Apr 09:25:41 09:30:57 76° 284° (WNW) 09:36:26 467.674
SO-50 28 Apr 09:31:46 09:33:47 13° 109° (ESE) 09:36:07 436.795
ISS 28 Apr 09:40:18 09:42:52 22° 130° (SE) 09:45:29 145.825
TIGRISAT 28 Apr 09:47:48 09:51:14 22° 70° (ENE) 09:54:51 435.000
DOVE 4 28 Apr 09:48:27 09:53:38 66° 284° (WNW) 09:58:54 437.250
Cosmos 2491 28 Apr 09:48:37 09:57:28 73° 82° (E) 10:06:17 435.465 / 435.565
CUBEBUG 2 28 Apr 09:51:50 09:56:09 34° 96° (E) 10:00:27 437.445
POLYITAN 1 28 Apr 09:52:56 09:53:47 11° 67° (ENE) 09:54:53 437.675
UNISAT 6 28 Apr 09:53:06 09:56:50 26° 71° (ENE) 10:00:44 437.425
BRITE-PL 28 Apr 09:53:35 09:58:03 28° 288° (WNW) 10:02:36 437.365/2234.400
DELFI C3 28 Apr 09:55:15 09:58:43 28° 96° (E) 10:02:14 145.870
COMPASS 1 28 Apr 09:58:09 10:02:19 62° 284° (WNW) 10:06:25 437.405
BEESAT 3 28 Apr 10:04:51 10:06:23 12° 47° (NE) 10:08:07 437.485
QB50P1 28 Apr 10:07:56 10:10:29 16° 70° (ENE) 10:13:13 145.935-145.965
BEESAT 2 28 Apr 10:10:14 10:11:32 11° 46° (NE) 10:13:02 435.950
CINEMA 3 28 Apr 10:11:35 10:16:37 74° 283° (WNW) 10:21:37 145.822/145.860
UWE-3 28 Apr 10:11:42 10:16:11 45° 98° (E) 10:20:38 435.000/436.395/437.385
HUMSAT D 28 Apr 10:13:03 10:15:29 15° 92° (E) 10:18:07 437.325/437.525
FUNcube-1 28 Apr 10:13:37 10:17:50 36° 97° (E) 10:22:01 145.935
UKube-1 28 Apr 10:15:04 10:18:02 18° 94° (E) 10:21:09 .
HO-68 28 Apr 10:17:21 10:24:13 49° 290° (WNW) 10:30:59 435.675
SEEDS 28 Apr 10:29:02 10:32:20 22° 289° (WNW) 10:35:31 437.485
50 SAT 28 Apr 10:30:20 10:32:08 13° 91° (E) 10:34:08 437.505
Oscar 11 28 Apr 10:32:35 10:36:55 68° 284° (WNW) 10:41:12 145.826/435.025
QB50P2 28 Apr 10:33:45 10:37:32 34° 73° (ENE) 10:41:24 145.880/145.840
ANTELSAT 28 Apr 10:34:21 10:38:53 79° 77° (ENE) 10:43:33 437.575/2403.000
AAUSAT CUBESAT 2 28 Apr 10:38:57 10:42:20 24° 288° (WNW) 10:45:37 437.432
ZACube-1 28 Apr 10:39:56 10:44:34 77° 101° (E) 10:49:06 437.345
CANX-2 28 Apr 10:44:01 10:45:38 12° 292° (WNW) 10:47:00 2200.000
YUBILEINY 28 Apr 10:47:26 10:56:17 88° 93° (E) 11:05:09 435.215
NANOSAT C BR1 28 Apr 10:49:28 10:53:32 51° 75° (ENE) 10:57:40 145.865
CUBEBUG 1 28 Apr 10:53:37 10:54:19 10° 90° (E) 10:55:22 437.445
CUTE 1.7 + AOD 2 28 Apr 10:53:41 10:54:17 10° 292° (WNW) 10:54:36 437.475
POPSAT HIP 1 28 Apr 10:53:59 10:58:07 59° 75° (ENE) 11:02:17 437.405
VELOX 1 28 Apr 10:54:21 10:58:01 26° 96° (E) 11:01:47 145.980
BUGSAT 1 28 Apr 11:03:06 11:06:58 49° 75° (ENE) 11:10:53 437.445
AIST 1 28 Apr 11:08:13 11:12:00 30° 78° (ENE) 11:15:49
SO-50 28 Apr 11:09:21 11:13:53 54° 302° (WNW) 11:18:35 436.795
DX 1 28 Apr 11:11:06 11:15:29 84° 283° (WNW) 11:19:51 434.975-435.025
AISAT 28 Apr 11:12:58 11:17:15 44° 99° (E) 11:21:32 437.250
ISS 28 Apr 11:16:20 11:19:08 26° 324° (NW) 11:21:56 145.825
DUCHIFAT 1 28 Apr 11:22:25 11:26:32 60° 259° (W) 11:30:44 145.980
TIGRISAT 28 Apr 11:23:54 11:27:50 28° 265° (W) 11:31:48 435.000
POLYITAN 1 28 Apr 11:25:09 11:29:17 53° 260° (W) 11:33:26 437.675
AIST 2 28 Apr 11:27:21 11:30:44 23° 53° (NE) 11:34:08 435.215
CUBEBUG 2 28 Apr 11:29:02 11:32:38 21° 290° (WNW) 11:36:04 437.445
UNISAT 6 28 Apr 11:29:52 11:33:35 24° 266° (W) 11:37:16 437.425
DELFI C3 28 Apr 11:30:58 11:33:41 17° 289° (WNW) 11:36:14 145.870
Cosmos 2504 28 Apr 11:34:16 11:38:00 14° 81° (E) 11:42:28 435.465 / 435.565
BEESAT 3 28 Apr 11:40:49 11:44:49 56° 244° (WSW) 11:48:44 437.485
QB50P1 28 Apr 11:42:19 11:46:08 33° 263° (W) 11:49:57 145.935-145.965
BEESAT 2 28 Apr 11:46:03 11:50:07 61° 244° (WSW) 11:54:05 435.950
HUMSAT D 28 Apr 11:47:26 11:51:25 36° 287° (WNW) 11:55:20 437.325/437.525
Cosmos 2491 28 Apr 11:47:34 11:53:34 19° 277° (W) 11:59:02 435.465 / 435.565
RS-15 28 Apr 11:47:36 11:51:37 13° 101° (ESE) 11:56:46 29.354- 29.394
UWE-3 28 Apr 11:49:32 11:52:22 15° 291° (WNW) 11:54:58 435.000/436.395/437.385
UKube-1 28 Apr 11:50:25 11:54:15 30° 288° (WNW) 11:58:00 .
FUNcube-1 28 Apr 11:50:43 11:53:54 18° 290° (WNW) 11:56:54 145.935
SPROUT 28 Apr 12:00:46 12:03:31 17° 93° (E) 12:06:26 437.525
ESTCUBE 1 28 Apr 12:02:09 12:06:39 87° 95° (E) 12:11:10 437.505/2401.250
50 SAT 28 Apr 12:03:25 12:07:08 36° 286° (WNW) 12:10:46 437.505
QB50P2 28 Apr 12:10:58 12:13:35 15° 268° (W) 12:16:02 145.880/145.840
CUBEBUG 1 28 Apr 12:26:48 12:31:04 53° 285° (WNW) 12:35:20 437.445
VELOX 1 28 Apr 12:30:56 12:34:29 23° 289° (WNW) 12:37:58 145.980
AIST 1 28 Apr 12:46:44 12:49:26 16° 271° (W) 12:51:57
YUBILEINY 28 Apr 12:49:11 12:54:28 16° 296° (WNW) 12:59:09 435.215
AISAT 28 Apr 12:51:02 12:53:30 14° 292° (WNW) 12:55:45 437.250
TISAT 1 28 Apr 12:53:15 12:57:27 56° 100° (E) 13:01:38 437.305
AIST 2 28 Apr 13:05:44 13:09:17 26° 248° (WSW) 13:12:43 435.215
Gurwin Techsat 1B 28 Apr 13:10:35 13:12:59 14° 66° (ENE) 13:15:41 435.225
Oscar 19 28 Apr 13:17:49 13:22:54 66° 75° (ENE) 13:28:03 437.125/150
BEESAT 28 Apr 13:18:36 13:21:07 15° 92° (E) 13:23:52 436.000
SWISSCUBE 28 Apr 13:21:12 13:24:15 17° 93° (E) 13:27:28 437.505
Cosmos 2504 28 Apr 13:21:35 13:30:28 86° 95° (E) 13:39:17 435.465 / 435.565
SPROUT 28 Apr 13:35:49 13:39:44 33° 287° (WNW) 13:43:34 437.525
RS-15 28 Apr 13:51:45 14:02:36 80° 116° (ESE) 14:13:39 29.354- 29.394
ITAMSAT 1 28 Apr 13:59:30 14:04:27 49° 73° (ENE) 14:09:27 435.822/435.867
VERMONT LUNAR 28 Apr 14:12:21 14:15:17 29° 147° (SSE) 14:18:17 437.305
ITUPSAT 1 28 Apr 14:25:41 14:30:28 84° 104° (ESE) 14:35:14 437.325
TISAT 1 28 Apr 14:32:01 14:32:48 10° 293° (WNW) 14:33:20 437.305
JAS-2 28 Apr 14:42:23 14:48:10 24° 66° (ENE) 14:54:03 435.910
Gurwin Techsat 1B 28 Apr 14:47:13 14:52:29 65° 259° (W) 14:57:46 435.225
STARS 28 Apr 14:47:57 14:50:09 14° 92° (E) 14:52:35 437.465
BEESAT 28 Apr 14:54:42 14:59:14 45° 287° (WNW) 15:03:45 436.000
AO-7 28 Apr 14:56:25 15:03:34 35° 64° (ENE) 15:10:55 29.400- 29.500
SWISSCUBE 28 Apr 14:57:52 15:02:17 38° 287° (WNW) 15:06:39 437.505
Oscar 19 28 Apr 15:01:00 15:02:49 11° 271° (W) 15:04:14 437.125/150
PHONESAT 2.4 28 Apr 15:12:01 15:15:08 30° 147° (SSE) 15:18:19 2401.200-2431.200
GONETS M04 28 Apr 15:12:47 15:19:34 27° 86° (E) 15:26:42
HORYU 2 28 Apr 15:15:27 15:19:42 45° 73° (ENE) 15:24:01 437.375
Cosmos 2504 28 Apr 15:19:19 15:25:04 17° 294° (WNW) 15:30:12 435.465 / 435.565
KKS-1 28 Apr 15:35:31 15:40:02 88° 104° (ESE) 15:44:31 437.445
ITAMSAT 1 28 Apr 15:41:03 15:44:17 16° 268° (W) 15:47:16 435.822/435.867
VERMONT LUNAR 28 Apr 15:49:23 15:52:39 49° 341° (NNW) 15:55:57 437.305
CUSAT 1 28 Apr 15:49:29 15:50:08 10° 82° (E) 15:51:05 437.405
PCSat 28 Apr 16:03:16 16:06:53 18° 51° (NE) 16:10:42 145.827
RS-15 28 Apr 16:07:14 16:16:22 28° 320° (NW) 16:25:22 29.354- 29.394
STARS 28 Apr 16:22:38 16:26:51 42° 286° (WNW) 16:31:02 437.465
JAS-2 28 Apr 16:24:53 16:32:42 66° 259° (W) 16:40:17 435.910
MOZHAYETS 4 28 Apr 16:26:24 16:29:27 18° 93° (E) 16:32:40
